User: anonymous   Login
Location: Ostrava
(49.8330°N, 18.2830°E)
Time: 05:18:29
(UTC+02:00)
Language:

NOAA 19 - Orbit

View from above orbital plane
View from above orbital plane
View from above satellite
View from above satellite

Ground track
Ground track

The orbit data is extracted from the following two-line orbital elements,

1 33591U 09005A   15089.43581206  .00000381  00000-0  23267-3 0  9992
2 33591 098.9822 039.1601 0014776 035.6655 324.5501 14.11900894316373
Epoch (UTC): 30 March 2015 10:27:34
Eccentricity: 0.0014776
inclination: 98.9822°
perigee height: 842 km
apogee height: 863 km
right ascension of ascending node: 39.1601°
argument of perigee: 35.6655°
revolutions per day: 14.11900894
mean anomaly at epoch: 324.5501°
orbit number at epoch: 31637

The dashed part of the orbit path shows where the satellite is in the earth's shadow,  

DLR